Location: Czekanka
(50.4925°N, 19.2643°E)
Time: 14:39:04
(UTC+00:00)

SL-16 R/B - Pass Details

Date: 24 September 2024
Orbit: 842 x 846 km, 71.0° (Epoch: 07 October)

Event Time Altitude Azimuth Distance (km) Brightness Sun altitude
Rises 17:51:04 0° 211° (SSW) 3,393 5.6 -12.7°
Reaches altitude 10° 17:53:30 10° 212° (SSW) 2,461 4.8 -13.1°
Maximum altitude 17:59:09 81° 299° (WNW) 861 2.3 -13.9°
Drops below altitude 10° 18:04:52 10° 28° (NNE) 2,474 4.5 -14.8°
Sets 18:07:19 0° 30° (NNE) 3,413 5.2 -15.2°
